SCP
0 0 0 0 0 0 0 0 0 0 0 0 0 0 0 0 0 0 0 0 0 0 0 0 0 0 0 0 0 0 0 0 0 0 0 0 0 0 0 0 0 0 0
0 0 0 0 0 0 0 0 0 0 0 0 0 0 0 0 0 0 0 0 0 0 0 0 0 0 0 0 0 0 0 0 0 0 0 0 0 0 0 0 0 0 0
0 0 0 0 0 0 0 0 0 0 0 0 0 0 0 0 0 0 0 0 0 0 0 0 0 0 0 -0 0 0 0 0 0 0 0 0 0 0 0 0 0 0 0
0 0 0 0 0 0 0 0 0 0 0 0 0 0 0 0 0 0 0 0 0 0 0 0 0 0 -0 -0 0 0 0 0 0 0 0 0 0 0 0 0 0 0 0
0 0 0 0 0 0 0 0 0 0 0 0 0 0 0 0 0 0 0 0 0 0 0 0 0 0 0 0 0 -0 0 0 0 0 0 0 0 0 0 0 0 0 0
0 0 0 0 0 0 0 0 0 0 0 0 0 0 0 0 0 0 0 0 0 0 0 0 0 0 0 0 0 0 -0 0 0 0 0 0 0 0 0 0 0 0 0
0 0 0 0 0 0 0 0 0 0 0 0 0 0 0 0 0 0 0 0 0 0 0 0 0 0 0 0 0 0 0 0 0 0 0 0 0 0 0 0 0 0 0
0 0 0 0 0 0 0 0 0 0 0 0 0 0 0 0 0 0 0 0 0 0 0 0 0 0 0 0 0 0 0 0 0 0 0 0 0 0 0 0 0 0 0
0 0 0 0 0 0 0 0 0 0 0 0 0 0 0 0 0 0 0 0 0 0 0 0 0 0 0 0 0 0 0 0 0 0 0 0 0 0 0 0 0 0 0
0 0 0 0 0 0 0 0 0 0 0 0 0 0 0 0 0 0 0 0 0 0 0 0 0 0 0 0 0 0 0 0 0 0 0 0 0 0 0 0 0 0 0
0 0 0 0 0 0 0 0 0 0 0 0 0 0 0 0 0 0 0 0 0 0 0 0 0 0 0 0 0 0 0 0 0 0 0 0 0 0 0 0 0 0 0
0 0 0 0 0 0 0 0 0 0 0 0 0 0 0 0 0 0 0 0 0 0 0 0 0 0 0 0 0 0 0 0 0 0 0 0 0 0 0 0 0 0 0
0 0 0 0 0 0 0 0 0 0 0 0 0 0 0 0 0 0 0 0 0 0 0 0 0 0 0 0 0 0 0 0 0 0 0 0 0 0 0 0 0 0 0
0 0 0 0 0 0 0 0 0 0 0 0 0 0 0 0 0 0 0 0 0 0 0 0 0 0 0 0 0 0 0 0 0 0 0 0 0 0 0 0 0 0 0
0 0 0 0 0 0 0 0 0 0 0 0 0 0 0 0 0 0 0 0 0 0 0 0 0 0 0 0 0 0 0 0 0 0 0 0 0 0 0 0 0 0 0
0 0 0 0 0 0 0 0 0 0 0 0 0 0 0 0 0 0 0 0 0 0 0 0 0 0 0 0 0 0 0 0 0 0 0 0 0 0 0 0 0 0 0
0 0 0 0 0 0 0 0 0 0 0 0 0 0 0 0 0 0 0 0 0 0 0 0 0 0 0 0 0 0 0 0 0 0 0 0 0 0 0 0 0 0 0
0 0 0 0 0 0 0 0 0 0 0 0 0 0 0 0 0 0 0 0 0 0 0 0 0 0 0 0 0 0 0 0 0 0 0 0 0 0 0 0 0 0 0
0 0 0 0 0 0 0 0 0 0 0 0 0 0 0 0 0 0 0 0 0 0 0 0 0 0 0 0 0 0 0 0 0 0 0 0 0 0 0 0 0 0 0
0 0 0 0 0 0 0 0 0 0 0 0 0 0 0 0 0 0 0 0 0 0 0 0 0 0 0 0 0 0 0 0 0 0 0 0 0 0 0 0 0 0 0
0 0 0 0 0 0 0 0 0 0 0 0 0 0 0 0 0 0 0 0 0 0 0 0 0 0 0 0 0 0 0 0 0 0 0 0 0 0 0 0 0 0 0
0 0 0 0 0 0 0 0 0 0 0 0 0 0 0 0 0 0 0 0 0 0 0 0 0 0 0 0 0 0 0 0 0 0 0 0 0 0 0 0 0 0 0
0 0 0 0 0 0 0 0 0 0 0 0 0 0 0 0 0 0 0 0 0 0 0 0 0 0 0 0 0 0 0 0 0 0 0 0 0 0 0 0 0 0 0
0 0 0 0 0 0 0 0 0 0 0 0 0 0 0 0 0 0 0 0 0 0 0 0 0 0 0 0 0 0 0 0 0 0 0 0 0 0 0 0 0 0 0
0 0 0 0 0 0 0 0 0 0 0 0 0 0 0 0 0 0 0 0 0 0 0 0 0 0 0 0 0 0 0 0 0 0 0 0 0 0 0 0 0 0 0
0 0 0 0 0 0 0 0 0 0 0 0 0 0 0 0 0 0 0 0 0 0 0 0 0 0 0 0 0 0 0 0 0 0 0 0 0 0 0 0 0 0 0
Wind_Speed_500mb
16 19 18 18 18 19 21 24 27 30 34 37 40 43 46 46 45 43 42 41 42 41 44 50 47 49 49 48 47 46 47 47 47 45 43 43 41 37 33 34 32 27 28
24 25 25 25 26 26 27 29 32 35 39 42 44 43 48 48 48 50 52 53 49 47 45 45 48 48 49 49 47 49 49 49 48 46 43 40 36 31 32 34 31 33 33
30 31 33 33 33 35 36 37 38 41 45 46 52 53 51 50 50 53 53 51 51 49 52 47 48 48 48 46 43 42 42 44 45 47 46 35 33 33 32 33 37 37 40
35 38 40 40 38 40 43 44 44 46 48 50 55 57 58 56 61 57 56 56 52 48 50 56 53 53 52 50 50 49 52 49 53 53 52 50 42 38 41 44 40 43 42
40 42 45 44 41 45 46 47 48 48 51 53 55 57 58 65 63 64 63 58 50 49 52 56 59 62 58 60 60 61 64 61 54 56 54 48 50 50 50 49 48 39 39
48 47 47 46 45 48 49 49 51 52 55 60 62 65 66 66 64 56 47 49 50 54 57 55 51 58 65 63 63 66 75 75 68 67 66 57 56 58 51 52 47 44 41
49 49 46 48 49 49 52 55 56 57 58 58 60 61 55 47 38 37 38 33 32 35 41 43 45 46 43 48 55 59 63 67 63 62 55 69 69 59 57 48 50 45 43
43 39 43 46 52 56 59 56 56 57 55 47 43 42 24 44 29 24 24 32 43 49 47 44 49 50 54 57 56 61 59 61 52 56 51 53 53 53 53 51 46 43 39
37 42 45 43 44 44 46 48 47 46 45 44 34 23 17 14 43 54 44 46 48 55 52 55 55 59 56 57 67 61 58 56 59 56 78 64 61 53 39 35 33 29 26
32 37 39 37 37 37 38 40 39 38 35 38 35 30 32 42 31 34 45 49 55 46 53 55 54 54 61 63 67 60 61 60 65 57 57 46 43 43 38 29 25 27 28
31 32 31 30 31 33 34 34 34 34 32 34 32 39 42 41 46 48 51 43 60 60 57 56 60 62 62 63 67 64 66 68 72 66 59 51 50 42 36 36 34 31 33
25 29 32 33 33 34 35 34 33 35 35 36 37 39 41 47 48 49 50 57 63 67 63 62 62 61 59 62 64 65 63 72 69 60 73 59 47 43 42 38 41 37 38
24 27 30 32 33 33 35 36 37 39 40 43 44 45 46 47 47 51 54 66 70 74 78 70 66 62 56 55 57 67 66 77 71 72 68 71 65 45 43 40 36 42 45
28 31 33 36 39 41 42 43 44 45 46 47 48 48 50 50 50 51 53 51 66 71 71 74 72 62 53 49 50 59 63 70 70 67 67 73 59 51 52 55 44 45 48
29 32 35 37 39 42 45 48 49 51 52 52 53 54 55 54 53 53 52 51 48 60 68 73 66 63 59 55 54 53 61 62 67 61 66 70 62 53 47 46 46 56 56
29 32 34 37 38 41 43 45 46 48 52 51 52 54 54 54 54 53 52 51 51 52 62 77 75 74 68 64 56 54 56 62 60 62 61 58 53 52 55 50 50 62 54
40 44 48 50 52 54 55 56 56 57 60 60 57 59 59 58 59 56 54 53 53 48 60 82 74 75 72 66 61 53 55 56 60 61 59 50 61 68 52 54 53 61 49
50 56 60 63 64 65 66 67 69 68 69 68 65 64 63 61 61 57 56 56 55 51 54 72 72 72 69 68 65 59 57 57 57 62 63 58 55 58 54 58 64 59 54
59 62 63 63 63 64 65 65 67 69 69 69 69 69 68 66 66 61 58 58 55 53 54 63 73 71 69 68 65 63 59 60 59 60 61 61 60 64 56 58 69 69 73
59 58 59 61 61 62 62 64 65 66 67 67 66 65 66 66 67 66 64 61 58 58 54 58 66 66 67 68 68 66 65 68 62 63 61 60 67 70 64 67 68 75 77
56 55 55 52 52 53 56 60 61 62 63 64 63 62 62 61 63 63 64 63 57 58 57 59 63 64 65 68 71 67 68 69 63 65 66 66 70 72 68 65 75 81 75
52 52 52 55 55 53 54 56 60 63 62 62 64 62 62 62 61 62 61 59 57 57 59 59 62 65 64 65 64 66 65 67 68 69 69 72 78 74 69 70 77 77 69
52 52 53 54 55 56 58 59 60 61 61 62 62 62 64 64 63 60 57 57 55 52 52 57 64 61 62 61 61 63 65 70 75 69 55 78 79 77 72 78 72 68 63
56 57 57 57 58 57 60 61 63 64 64 64 64 63 63 65 60 57 59 59 56 53 49 49 55 58 60 62 64 64 62 61 69 70 62 71 81 84 75 74 62 56 61
58 59 60 61 62 62 64 66 68 68 68 68 66 65 62 65 66 56 59 69 66 56 42 47 48 57 63 61 61 63 66 67 70 71 70 71 71 83 76 74 59 54 56
53 55 55 57 60 61 60 62 63 64 68 69 66 65 66 64 65 57 55 61 74 72 49 44 49 54 57 55 49 48 58 70 76 64 71 75 70 75 59 70 66 55 49
Wind_Direction_500mb
281 283 290 290 292 292 301 305 307 309 310 308 305 305 304 302 301 298 298 302 298 301 300 293 291 287 284 285 278 276 273 273 272 273 275 280 278 272 275 280 278 272 270
277 276 277 278 280 285 289 294 298 301 304 304 306 307 311 311 301 293 289 288 292 288 294 298 296 292 291 286 286 278 275 275 275 276 281 277 269 265 272 276 271 263 262
279 277 275 276 279 282 286 290 295 298 301 307 305 307 305 302 297 297 289 297 295 286 282 287 289 291 286 286 285 284 280 282 284 282 285 263 264 273 265 262 269 264 264
283 284 282 283 287 284 286 288 291 292 294 293 288 291 289 289 289 287 287 285 285 288 284 277 279 281 283 284 283 283 278 277 276 274 274 265 268 272 277 268 262 260 264
288 288 288 290 291 289 287 288 288 289 289 291 292 290 289 287 288 288 284 281 283 284 283 278 273 274 277 277 278 279 279 284 281 271 266 259 262 273 274 263 262 262 260
289 287 287 288 289 288 289 289 289 290 291 292 291 290 290 291 291 290 286 288 284 286 289 284 283 279 275 276 280 284 286 287 289 274 262 253 258 272 263 267 260 258 261
277 281 276 276 276 282 289 289 289 290 293 297 298 301 300 301 297 296 297 302 308 310 307 293 293 293 294 289 287 286 288 286 286 279 245 265 258 259 255 258 255 257 262
277 276 279 281 280 279 281 284 286 290 294 297 300 313 314 311 309 313 307 297 299 305 302 300 302 292 290 296 289 287 285 292 286 269 230 256 254 254 245 244 249 253 250
277 278 279 280 281 284 284 285 288 293 299 301 300 289 306 286 302 299 298 299 303 302 300 301 297 297 287 296 302 294 290 288 297 271 267 274 272 245 245 239 237 208 194
280 286 291 290 290 290 290 293 298 302 305 307 306 300 289 289 298 303 300 296 297 299 302 300 298 304 300 296 292 297 294 285 289 274 249 245 241 228 222 219 213 209 189
294 295 296 298 302 304 305 305 304 304 307 304 301 301 295 292 290 294 299 293 294 294 293 294 294 292 298 300 297 293 289 271 278 264 234 235 221 223 215 206 207 207 204
294 297 302 308 311 309 306 304 301 299 298 295 292 288 287 290 292 297 294 296 301 298 294 294 291 291 290 291 291 297 288 277 275 271 262 235 229 217 225 215 209 210 204
310 310 312 313 312 309 305 301 297 296 296 295 294 292 291 289 287 285 287 290 295 295 295 294 295 296 293 295 295 294 286 288 275 268 266 250 231 223 211 211 200 203 205
314 312 310 309 308 307 306 304 302 301 298 295 295 294 293 293 292 290 288 289 291 291 292 294 297 297 296 290 297 295 291 286 280 266 250 228 230 214 210 209 209 212 215
315 312 311 310 310 309 307 306 307 305 302 301 299 297 295 294 291 289 287 287 283 287 293 296 293 295 294 291 291 288 290 280 276 262 240 238 222 223 221 219 217 219 223
327 325 324 322 319 317 315 313 312 310 309 308 306 303 299 297 293 290 288 284 279 275 276 285 290 293 294 294 290 289 287 282 275 269 264 250 233 225 220 218 214 219 226
326 323 320 318 315 313 311 310 308 307 304 303 302 300 300 299 297 295 290 285 283 280 275 286 288 292 294 294 292 286 283 281 275 269 261 234 222 227 219 222 218 224 218
317 315 314 313 311 309 307 306 305 304 304 304 304 302 301 301 298 298 295 291 287 283 279 282 288 289 291 292 290 282 275 272 268 264 259 251 238 229 224 220 218 214 208
309 308 308 307 306 305 305 303 301 301 301 301 301 301 301 300 298 297 295 291 290 287 281 279 284 286 289 288 288 285 281 271 264 257 252 249 227 226 221 212 223 212 215
313 312 310 308 306 305 304 303 302 300 299 299 299 298 298 297 297 296 294 293 291 288 286 283 283 284 284 286 283 281 276 273 265 258 249 238 232 231 230 219 221 219 224
320 319 319 318 317 315 313 313 311 310 309 307 305 302 300 298 297 298 298 297 290 287 287 284 283 284 281 281 281 286 282 277 266 255 245 235 226 223 221 219 223 228 235
324 323 322 322 322 321 317 315 313 312 310 309 308 306 303 300 298 296 294 293 291 290 289 289 288 283 284 284 284 282 278 268 259 257 244 237 230 226 226 219 226 229 233
328 329 328 326 326 324 321 318 314 311 310 310 309 308 306 303 300 297 293 288 285 282 285 289 285 285 285 284 284 281 277 272 267 260 247 235 229 223 221 217 223 227 232
333 332 331 331 329 329 325 322 318 317 314 313 313 313 312 311 312 309 300 292 287 284 284 280 282 285 282 279 274 278 278 272 264 255 247 231 229 222 216 215 213 225 230
332 332 333 332 331 331 327 324 321 319 318 317 318 318 316 315 316 313 306 302 299 293 291 288 286 281 282 282 284 276 262 257 248 245 236 231 227 220 214 213 205 219 226
329 329 330 330 329 327 327 325 324 322 320 320 322 318 318 318 317 318 307 297 292 296 299 294 289 285 289 292 286 272 254 252 246 240 235 224 223 219 206 205 198 201 213
Wind_Speed_850mb
16 19 18 18 18 19 21 24 27 30 34 37 40 43 46 46 45 43 42 41 42 41 44 50 47 49 49 48 47 46 47 47 47 45 43 43 41 37 33 34 32 27 28
24 25 25 25 26 26 27 29 32 35 39 42 44 43 48 48 48 50 52 53 49 47 45 45 48 48 49 49 47 49 49 49 48 46 43 40 36 31 32 34 31 33 33
30 31 33 33 33 35 36 37 38 41 45 46 52 53 51 50 50 53 53 51 51 49 52 47 48 48 48 46 43 42 42 44 45 47 46 35 33 33 32 33 37 37 40
35 38 40 40 38 40 43 44 44 46 48 50 55 57 58 56 61 57 56 56 52 48 50 56 53 53 52 50 50 49 52 49 53 53 52 50 42 38 41 44 40 43 42
40 42 45 44 41 45 46 47 48 48 51 53 55 57 58 65 63 64 63 58 50 49 52 56 59 62 58 60 60 61 64 61 54 56 54 48 50 50 50 49 48 39 39
48 47 47 46 45 48 49 49 51 52 55 60 62 65 66 66 64 56 47 49 50 54 57 55 51 58 65 63 63 66 75 75 68 67 66 57 56 58 51 52 47 44 41
49 49 46 48 49 49 52 55 56 57 58 58 60 61 55 47 38 37 38 33 32 35 41 43 45 46 43 48 55 59 63 67 63 62 55 69 69 59 57 48 50 45 43
43 39 43 46 52 56 59 56 56 57 55 47 43 42 24 44 29 24 24 32 43 49 47 44 49 50 54 57 56 61 59 61 52 56 51 53 53 53 53 51 46 43 39
37 42 45 43 44 44 46 48 47 46 45 44 34 23 17 14 43 54 44 46 48 55 52 55 55 59 56 57 67 61 58 56 59 56 78 64 61 53 39 35 33 29 26
32 37 39 37 37 37 38 40 39 38 35 38 35 30 32 42 31 34 45 49 55 46 53 55 54 54 61 63 67 60 61 60 65 57 57 46 43 43 38 29 25 27 28
31 32 31 30 31 33 34 34 34 34 32 34 32 39 42 41 46 48 51 43 60 60 57 56 60 62 62 63 67 64 66 68 72 66 59 51 50 42 36 36 34 31 33
25 29 32 33 33 34 35 34 33 35 35 36 37 39 41 47 48 49 50 57 63 67 63 62 62 61 59 62 64 65 63 72 69 60 73 59 47 43 42 38 41 37 38
24 27 30 32 33 33 35 36 37 39 40 43 44 45 46 47 47 51 54 66 70 74 78 70 66 62 56 55 57 67 66 77 71 72 68 71 65 45 43 40 36 42 45
28 31 33 36 39 41 42 43 44 45 46 47 48 48 50 50 50 51 53 51 66 71 71 74 72 62 53 49 50 59 63 70 70 67 67 73 59 51 52 55 44 45 48
29 32 35 37 39 42 45 48 49 51 52 52 53 54 55 54 53 53 52 51 48 60 68 73 66 63 59 55 54 53 61 62 67 61 66 70 62 53 47 46 46 56 56
29 32 34 37 38 41 43 45 46 48 52 51 52 54 54 54 54 53 52 51 51 52 62 77 75 74 68 64 56 54 56 62 60 62 61 58 53 52 55 50 50 62 54
40 44 48 50 52 54 55 56 56 57 60 60 57 59 59 58 59 56 54 53 53 48 60 82 74 75 72 66 61 53 55 56 60 61 59 50 61 68 52 54 53 61 49
50 56 60 63 64 65 66 67 69 68 69 68 65 64 63 61 61 57 56 56 55 51 54 72 72 72 69 68 65 59 57 57 57 62 63 58 55 58 54 58 64 59 54
59 62 63 63 63 64 65 65 67 69 69 69 69 69 68 66 66 61 58 58 55 53 54 63 73 71 69 68 65 63 59 60 59 60 61 61 60 64 56 58 69 69 73
59 58 59 61 61 62 62 64 65 66 67 67 66 65 66 66 67 66 64 61 58 58 54 58 66 66 67 68 68 66 65 68 62 63 61 60 67 70 64 67 68 75 77
56 55 55 52 52 53 56 60 61 62 63 64 63 62 62 61 63 63 64 63 57 58 57 59 63 64 65 68 71 67 68 69 63 65 66 66 70 72 68 65 75 81 75
52 52 52 55 55 53 54 56 60 63 62 62 64 62 62 62 61 62 61 59 57 57 59 59 62 65 64 65 64 66 65 67 68 69 69 72 78 74 69 70 77 77 69
52 52 53 54 55 56 58 59 60 61 61 62 62 62 64 64 63 60 57 57 55 52 52 57 64 61 62 61 61 63 65 70 75 69 55 78 79 77 72 78 72 68 63
56 57 57 57 58 57 60 61 63 64 64 64 64 63 63 65 60 57 59 59 56 53 49 49 55 58 60 62 64 64 62 61 69 70 62 71 81 84 75 74 62 56 61
58 59 60 61 62 62 64 66 68 68 68 68 66 65 62 65 66 56 59 69 66 56 42 47 48 57 63 61 61 63 66 67 70 71 70 71 71 83 76 74 59 54 56
53 55 55 57 60 61 60 62 63 64 68 69 66 65 66 64 65 57 55 61 74 72 49 44 49 54 57 55 49 48 58 70 76 64 71 75 70 75 59 70 66 55 49
Wind_Direction_850mb
281 283 290 290 292 292 301 305 307 309 310 308 305 305 304 302 301 298 298 302 298 301 300 293 291 287 284 285 278 276 273 273 272 273 275 280 278 272 275 280 278 272 270
277 276 277 278 280 285 289 294 298 301 304 304 306 307 311 311 301 293 289 288 292 288 294 298 296 292 291 286 286 278 275 275 275 276 281 277 269 265 272 276 271 263 262
279 277 275 276 279 282 286 290 295 298 301 307 305 307 305 302 297 297 289 297 295 286 282 287 289 291 286 286 285 284 280 282 284 282 285 263 264 273 265 262 269 264 264
283 284 282 283 287 284 286 288 291 292 294 293 288 291 289 289 289 287 287 285 285 288 284 277 279 281 283 284 283 283 278 277 276 274 274 265 268 272 277 268 262 260 264
288 288 288 290 291 289 287 288 288 289 289 291 292 290 289 287 288 288 284 281 283 284 283 278 273 274 277 277 278 279 279 284 281 271 266 259 262 273 274 263 262 262 260
289 287 287 288 289 288 289 289 289 290 291 292 291 290 290 291 291 290 286 288 284 286 289 284 283 279 275 276 280 284 286 287 289 274 262 253 258 272 263 267 260 258 261
277 281 276 276 276 282 289 289 289 290 293 297 298 301 300 301 297 296 297 302 308 310 307 293 293 293 294 289 287 286 288 286 286 279 245 265 258 259 255 258 255 257 262
277 276 279 281 280 279 281 284 286 290 294 297 300 313 314 311 309 313 307 297 299 305 302 300 302 292 290 296 289 287 285 292 286 269 230 256 254 254 245 244 249 253 250
277 278 279 280 281 284 284 285 288 293 299 301 300 289 306 286 302 299 298 299 303 302 300 301 297 297 287 296 302 294 290 288 297 271 267 274 272 245 245 239 237 208 194
280 286 291 290 290 290 290 293 298 302 305 307 306 300 289 289 298 303 300 296 297 299 302 300 298 304 300 296 292 297 294 285 289 274 249 245 241 228 222 219 213 209 189
294 295 296 298 302 304 305 305 304 304 307 304 301 301 295 292 290 294 299 293 294 294 293 294 294 292 298 300 297 293 289 271 278 264 234 235 221 223 215 206 207 207 204
294 297 302 308 311 309 306 304 301 299 298 295 292 288 287 290 292 297 294 296 301 298 294 294 291 291 290 291 291 297 288 277 275 271 262 235 229 217 225 215 209 210 204
310 310 312 313 312 309 305 301 297 296 296 295 294 292 291 289 287 285 287 290 295 295 295 294 295 296 293 295 295 294 286 288 275 268 266 250 231 223 211 211 200 203 205
314 312 310 309 308 307 306 304 302 301 298 295 295 294 293 293 292 290 288 289 291 291 292 294 297 297 296 290 297 295 291 286 280 266 250 228 230 214 210 209 209 212 215
315 312 311 310 310 309 307 306 307 305 302 301 299 297 295 294 291 289 287 287 283 287 293 296 293 295 294 291 291 288 290 280 276 262 240 238 222 223 221 219 217 219 223
327 325 324 322 319 317 315 313 312 310 309 308 306 303 299 297 293 290 288 284 279 275 276 285 290 293 294 294 290 289 287 282 275 269 264 250 233 225 220 218 214 219 226
326 323 320 318 315 313 311 310 308 307 304 303 302 300 300 299 297 295 290 285 283 280 275 286 288 292 294 294 292 286 283 281 275 269 261 234 222 227 219 222 218 224 218
317 315 314 313 311 309 307 306 305 304 304 304 304 302 301 301 298 298 295 291 287 283 279 282 288 289 291 292 290 282 275 272 268 264 259 251 238 229 224 220 218 214 208
309 308 308 307 306 305 305 303 301 301 301 301 301 301 301 300 298 297 295 291 290 287 281 279 284 286 289 288 288 285 281 271 264 257 252 249 227 226 221 212 223 212 215
313 312 310 308 306 305 304 303 302 300 299 299 299 298 298 297 297 296 294 293 291 288 286 283 283 284 284 286 283 281 276 273 265 258 249 238 232 231 230 219 221 219 224
320 319 319 318 317 315 313 313 311 310 309 307 305 302 300 298 297 298 298 297 290 287 287 284 283 284 281 281 281 286 282 277 266 255 245 235 226 223 221 219 223 228 235
324 323 322 322 322 321 317 315 313 312 310 309 308 306 303 300 298 296 294 293 291 290 289 289 288 283 284 284 284 282 278 268 259 257 244 237 230 226 226 219 226 229 233
328 329 328 326 326 324 321 318 314 311 310 310 309 308 306 303 300 297 293 288 285 282 285 289 285 285 285 284 284 281 277 272 267 260 247 235 229 223 221 217 223 227 232
333 332 331 331 329 329 325 322 318 317 314 313 313 313 312 311 312 309 300 292 287 284 284 280 282 285 282 279 274 278 278 272 264 255 247 231 229 222 216 215 213 225 230
332 332 333 332 331 331 327 324 321 319 318 317 318 318 316 315 316 313 306 302 299 293 291 288 286 281 282 282 284 276 262 257 248 245 236 231 227 220 214 213 205 219 226
329 329 330 330 329 327 327 325 324 322 320 320 322 318 318 318 317 318 307 297 292 296 299 294 289 285 289 292 286 272 254 252 246 240 235 224 223 219 206 205 198 201 213